Year,Month,Day,Hour,Minute,Value (Times are PST for temperature in C)
2019,06,02,00,00,14.00
2019,06,02,00,01,14.00
2019,06,02,00,02,14.00
2019,06,02,00,03,14.00
2019,06,02,00,04,14.00
2019,06,02,00,05,13.90
2019,06,02,00,06,13.90
2019,06,02,00,07,13.90
2019,06,02,00,08,13.90
2019,06,02,00,09,13.90
2019,06,02,00,10,13.90
2019,06,02,00,11,13.80
2019,06,02,00,12,13.80
2019,06,02,00,13,13.80
2019,06,02,00,14,13.80
2019,06,02,00,15,13.70
2019,06,02,00,16,13.70
2019,06,02,00,17,13.70
2019,06,02,00,18,13.70
2019,06,02,00,19,13.70
2019,06,02,00,20,13.70
2019,06,02,00,21,13.60
2019,06,02,00,22,13.60
2019,06,02,00,23,13.60
2019,06,02,00,24,13.50
2019,06,02,00,25,13.50
2019,06,02,00,26,13.40
2019,06,02,00,27,13.40
2019,06,02,00,28,13.30
2019,06,02,00,29,13.30
2019,06,02,00,30,13.30
2019,06,02,00,31,13.30
2019,06,02,00,32,13.20
2019,06,02,00,33,13.20
2019,06,02,00,34,13.20
2019,06,02,00,35,13.10
2019,06,02,00,36,13.10
2019,06,02,00,37,13.00
2019,06,02,00,38,13.00
2019,06,02,00,39,13.00
2019,06,02,00,40,13.00
2019,06,02,00,41,12.90
2019,06,02,00,42,12.90
2019,06,02,00,43,12.80
2019,06,02,00,44,12.80
2019,06,02,00,45,12.80
2019,06,02,00,46,12.80
2019,06,02,00,47,12.80
2019,06,02,00,48,12.80
2019,06,02,00,49,12.80
2019,06,02,00,50,12.80
2019,06,02,00,51,12.70
2019,06,02,00,52,12.70
2019,06,02,00,53,12.70
2019,06,02,00,54,12.70
2019,06,02,00,55,12.70
2019,06,02,00,56,12.60
2019,06,02,00,57,12.60
2019,06,02,00,58,12.60
2019,06,02,00,59,12.60
2019,06,02,01,00,12.60
2019,06,02,01,01,12.60
2019,06,02,01,02,12.50
2019,06,02,01,03,12.50
2019,06,02,01,04,12.50
2019,06,02,01,05,12.50
2019,06,02,01,06,12.50
2019,06,02,01,07,12.50
2019,06,02,01,08,12.40
2019,06,02,01,09,12.40
2019,06,02,01,10,12.40
2019,06,02,01,11,12.40
2019,06,02,01,12,12.40
2019,06,02,01,13,12.30
2019,06,02,01,14,12.30
2019,06,02,01,15,12.30
2019,06,02,01,16,12.30
2019,06,02,01,17,12.30
2019,06,02,01,18,12.30
2019,06,02,01,19,12.30
2019,06,02,01,20,12.30
2019,06,02,01,21,12.30
2019,06,02,01,22,12.30
2019,06,02,01,23,12.20
2019,06,02,01,24,12.20
2019,06,02,01,25,12.20
2019,06,02,01,26,12.20
2019,06,02,01,27,12.20
2019,06,02,01,28,12.20
2019,06,02,01,29,12.20
2019,06,02,01,30,12.20
2019,06,02,01,31,12.20
2019,06,02,01,32,12.20
2019,06,02,01,33,12.10
2019,06,02,01,34,12.10
2019,06,02,01,35,12.10
2019,06,02,01,36,12.10
2019,06,02,01,37,12.10
2019,06,02,01,38,12.10
2019,06,02,01,39,12.10
2019,06,02,01,40,12.10
2019,06,02,01,41,12.10
2019,06,02,01,42,12.10
2019,06,02,01,43,12.10
2019,06,02,01,44,12.10
2019,06,02,01,45,12.10
2019,06,02,01,46,12.10
2019,06,02,01,47,12.10
2019,06,02,01,48,12.10
2019,06,02,01,49,12.10
2019,06,02,01,50,12.10
2019,06,02,01,51,12.10
2019,06,02,01,52,12.10
2019,06,02,01,53,12.10
2019,06,02,01,54,12.10
2019,06,02,01,55,12.10
2019,06,02,01,56,12.10
2019,06,02,01,57,12.10
2019,06,02,01,58,12.10
2019,06,02,01,59,12.10
2019,06,02,02,00,12.10
2019,06,02,02,01,12.10
2019,06,02,02,02,12.20
2019,06,02,02,03,12.20
2019,06,02,02,04,12.20
2019,06,02,02,05,12.20
2019,06,02,02,06,12.20
2019,06,02,02,07,12.20
2019,06,02,02,08,12.20
2019,06,02,02,09,12.30
2019,06,02,02,10,12.30
2019,06,02,02,11,12.30
2019,06,02,02,12,12.30
2019,06,02,02,13,12.20
2019,06,02,02,14,12.20
2019,06,02,02,15,12.20
2019,06,02,02,16,12.20
2019,06,02,02,17,12.20
2019,06,02,02,18,12.20
2019,06,02,02,19,12.20
2019,06,02,02,20,12.20
2019,06,02,02,21,12.10
2019,06,02,02,22,12.10
2019,06,02,02,23,12.10
2019,06,02,02,24,12.10
2019,06,02,02,25,12.10
2019,06,02,02,26,12.10
2019,06,02,02,27,12.00
2019,06,02,02,28,12.00
2019,06,02,02,29,12.00
2019,06,02,02,30,12.00
2019,06,02,02,31,12.00
2019,06,02,02,32,12.00
2019,06,02,02,33,12.00
2019,06,02,02,34,12.00
2019,06,02,02,35,12.00
2019,06,02,02,36,11.90
2019,06,02,02,37,11.90
2019,06,02,02,38,11.90
2019,06,02,02,39,11.90
2019,06,02,02,40,11.90
2019,06,02,02,41,11.90
2019,06,02,02,42,11.90
2019,06,02,02,43,11.80
2019,06,02,02,44,11.80
2019,06,02,02,45,11.80
2019,06,02,02,46,11.80
2019,06,02,02,47,11.80
2019,06,02,02,48,11.80
2019,06,02,02,49,11.80
2019,06,02,02,50,11.80
2019,06,02,02,51,11.80
2019,06,02,02,52,11.80
2019,06,02,02,53,11.70
2019,06,02,02,54,11.70
2019,06,02,02,55,11.70
2019,06,02,02,56,11.70
2019,06,02,02,57,11.70
2019,06,02,02,58,11.70
2019,06,02,02,59,11.60
2019,06,02,03,00,11.60
2019,06,02,03,01,11.60
2019,06,02,03,02,11.60
2019,06,02,03,03,11.60
2019,06,02,03,04,11.60
2019,06,02,03,05,11.60
2019,06,02,03,06,11.60
2019,06,02,03,07,11.60
2019,06,02,03,08,11.60
2019,06,02,03,09,11.60
2019,06,02,03,10,11.60
2019,06,02,03,11,11.60
2019,06,02,03,12,11.60
2019,06,02,03,13,11.60
2019,06,02,03,14,11.50
2019,06,02,03,15,11.40
2019,06,02,03,16,11.40
2019,06,02,03,17,11.40
2019,06,02,03,18,11.40
2019,06,02,03,19,11.40
2019,06,02,03,20,11.40
2019,06,02,03,21,11.40
2019,06,02,03,22,11.40
2019,06,02,03,23,11.40
2019,06,02,03,24,11.40
2019,06,02,03,25,11.40
2019,06,02,03,26,11.40
2019,06,02,03,27,11.40
2019,06,02,03,28,11.40
2019,06,02,03,29,11.40
2019,06,02,03,30,11.40
2019,06,02,03,31,11.40
2019,06,02,03,32,11.30
2019,06,02,03,33,11.30
2019,06,02,03,34,11.30
2019,06,02,03,35,11.30
2019,06,02,03,36,11.30
2019,06,02,03,37,11.30
2019,06,02,03,38,11.30
2019,06,02,03,39,11.30
2019,06,02,03,40,11.20
2019,06,02,03,41,11.20
2019,06,02,03,42,11.20
2019,06,02,03,43,11.20
2019,06,02,03,44,11.20
2019,06,02,03,45,11.20
2019,06,02,03,46,11.20
2019,06,02,03,47,11.20
2019,06,02,03,48,11.20
2019,06,02,03,49,11.20
2019,06,02,03,50,11.20
2019,06,02,03,51,11.20
2019,06,02,03,52,11.10
2019,06,02,03,53,11.10
2019,06,02,03,54,11.10
2019,06,02,03,55,11.10
2019,06,02,03,56,11.10
2019,06,02,03,57,11.10
2019,06,02,03,58,11.10
2019,06,02,03,59,11.10
2019,06,02,04,00,11.10
2019,06,02,04,01,11.10
2019,06,02,04,02,11.10
2019,06,02,04,03,11.10
2019,06,02,04,04,11.10
2019,06,02,04,05,11.00
2019,06,02,04,06,10.90
2019,06,02,04,07,10.90
2019,06,02,04,08,10.90
2019,06,02,04,09,10.90
2019,06,02,04,10,10.90
2019,06,02,04,11,10.90
2019,06,02,04,12,10.90
2019,06,02,04,13,10.90
2019,06,02,04,14,10.90
2019,06,02,04,15,10.90
2019,06,02,04,16,10.90
2019,06,02,04,17,10.90
2019,06,02,04,18,10.90
2019,06,02,04,19,10.90
2019,06,02,04,20,10.90
2019,06,02,04,21,10.90
2019,06,02,04,22,10.90
2019,06,02,04,23,10.90
2019,06,02,04,24,10.80
2019,06,02,04,25,10.80
2019,06,02,04,26,10.80
2019,06,02,04,27,10.80
2019,06,02,04,28,10.80
2019,06,02,04,29,10.80
2019,06,02,04,30,10.70
2019,06,02,04,31,10.70
2019,06,02,04,32,10.70
2019,06,02,04,33,10.70
2019,06,02,04,34,10.70
2019,06,02,04,35,10.70
2019,06,02,04,36,10.70
2019,06,02,04,37,10.70
2019,06,02,04,38,10.70
2019,06,02,04,39,10.60
2019,06,02,04,40,10.60
2019,06,02,04,41,10.60
2019,06,02,04,42,10.60
2019,06,02,04,43,10.60
2019,06,02,04,44,10.60
2019,06,02,04,45,10.60
2019,06,02,04,46,10.60
2019,06,02,04,47,10.60
2019,06,02,04,48,10.60
2019,06,02,04,49,10.60
2019,06,02,04,50,10.60
2019,06,02,04,51,10.60
2019,06,02,04,52,10.60
2019,06,02,04,53,10.60
2019,06,02,04,54,10.60
2019,06,02,04,55,10.60
2019,06,02,04,56,10.60
2019,06,02,04,57,10.60
2019,06,02,04,58,10.60
2019,06,02,04,59,10.60
2019,06,02,05,00,10.60
2019,06,02,05,01,10.60
2019,06,02,05,02,10.60
2019,06,02,05,03,10.50
2019,06,02,05,04,10.40
2019,06,02,05,05,10.40
2019,06,02,05,06,10.40
2019,06,02,05,07,10.40
2019,06,02,05,08,10.40
2019,06,02,05,09,10.40
2019,06,02,05,10,10.40
2019,06,02,05,11,10.40
2019,06,02,05,12,10.40
2019,06,02,05,13,10.40
2019,06,02,05,14,10.40
2019,06,02,05,15,10.40
2019,06,02,05,16,10.40
2019,06,02,05,17,10.40
2019,06,02,05,18,10.40
2019,06,02,05,19,10.40
2019,06,02,05,20,10.30
2019,06,02,05,21,10.30
2019,06,02,05,22,10.30
2019,06,02,05,23,10.30
2019,06,02,05,24,10.30
2019,06,02,05,25,10.30
2019,06,02,05,26,10.30
2019,06,02,05,27,10.30
2019,06,02,05,28,10.20
2019,06,02,05,29,10.20
2019,06,02,05,30,10.20
2019,06,02,05,31,10.20
2019,06,02,05,32,10.20
2019,06,02,05,33,10.20
2019,06,02,05,34,10.20
2019,06,02,05,35,10.10
2019,06,02,05,36,10.10
2019,06,02,05,37,10.10
2019,06,02,05,38,10.10
2019,06,02,05,39,10.10
2019,06,02,05,40,10.10
2019,06,02,05,41,10.10
2019,06,02,05,42,10.10
2019,06,02,05,43,10.10
2019,06,02,05,44,10.10
2019,06,02,05,45,10.10
2019,06,02,05,46,10.10
2019,06,02,05,47,10.10
2019,06,02,05,48,10.10
2019,06,02,05,49,10.10
2019,06,02,05,50,10.10
2019,06,02,05,51,10.10
2019,06,02,05,52,10.10
2019,06,02,05,53,10.10
2019,06,02,05,54,10.10
2019,06,02,05,55,10.10
2019,06,02,05,56,10.10
2019,06,02,05,57,10.10
2019,06,02,05,58,10.10
2019,06,02,05,59,10.10
2019,06,02,06,00,10.10
2019,06,02,06,01,10.10
2019,06,02,06,02,10.10
2019,06,02,06,03,10.10
2019,06,02,06,04,10.10
2019,06,02,06,05,10.10
2019,06,02,06,06,10.10
2019,06,02,06,07,10.10
2019,06,02,06,08,10.20
2019,06,02,06,09,10.20
2019,06,02,06,10,10.20
2019,06,02,06,11,10.20
2019,06,02,06,12,10.20
2019,06,02,06,13,10.20
2019,06,02,06,14,10.20
2019,06,02,06,15,10.20
2019,06,02,06,16,10.20
2019,06,02,06,17,10.20
2019,06,02,06,18,10.20
2019,06,02,06,19,10.20
2019,06,02,06,20,10.20
2019,06,02,06,21,10.20
2019,06,02,06,22,10.20
2019,06,02,06,23,10.20
2019,06,02,06,24,10.20
2019,06,02,06,25,10.20
2019,06,02,06,26,10.20
2019,06,02,06,27,10.20
2019,06,02,06,28,10.20
2019,06,02,06,29,10.20
2019,06,02,06,30,10.20
2019,06,02,06,31,10.20
2019,06,02,06,32,10.20
2019,06,02,06,33,10.20
2019,06,02,06,34,10.30
2019,06,02,06,35,10.30
2019,06,02,06,36,10.30
2019,06,02,06,37,10.30
2019,06,02,06,38,10.30
2019,06,02,06,39,10.30
2019,06,02,06,40,10.30
2019,06,02,06,41,10.40
2019,06,02,06,42,10.40
2019,06,02,06,43,10.40
2019,06,02,06,44,10.40
2019,06,02,06,45,10.40
2019,06,02,06,46,10.40
2019,06,02,06,47,10.40
2019,06,02,06,48,10.40
2019,06,02,06,49,10.40
2019,06,02,06,50,10.40
2019,06,02,06,51,10.40
2019,06,02,06,52,10.40
2019,06,02,06,53,10.40
2019,06,02,06,54,10.40
2019,06,02,06,55,10.50
2019,06,02,06,56,10.60
2019,06,02,06,57,10.60
2019,06,02,06,58,10.60
2019,06,02,06,59,10.60
2019,06,02,07,00,10.60
2019,06,02,07,01,10.60
2019,06,02,07,02,10.60
2019,06,02,07,03,10.70
2019,06,02,07,04,10.70
2019,06,02,07,05,10.80
2019,06,02,07,06,10.80
2019,06,02,07,07,10.90
2019,06,02,07,08,10.90
2019,06,02,07,09,10.90
2019,06,02,07,10,11.00
2019,06,02,07,11,11.10
2019,06,02,07,12,11.10
2019,06,02,07,13,11.10
2019,06,02,07,14,11.10
2019,06,02,07,15,11.20
2019,06,02,07,16,11.20
2019,06,02,07,17,11.30
2019,06,02,07,18,11.30
2019,06,02,07,19,11.30
2019,06,02,07,20,11.40
2019,06,02,07,21,11.50
2019,06,02,07,22,11.60
2019,06,02,07,23,11.60
2019,06,02,07,24,11.80
2019,06,02,07,25,11.80
2019,06,02,07,26,11.80
2019,06,02,07,27,11.90
2019,06,02,07,28,12.00
2019,06,02,07,29,12.10
2019,06,02,07,30,12.30
2019,06,02,07,31,12.40
2019,06,02,07,32,12.50
2019,06,02,07,33,12.60
2019,06,02,07,34,12.70
2019,06,02,07,35,12.80
2019,06,02,07,36,12.90
2019,06,02,07,37,13.00
2019,06,02,07,38,13.00
2019,06,02,07,39,13.10
2019,06,02,07,40,13.20
2019,06,02,07,41,13.20
2019,06,02,07,42,13.30
2019,06,02,07,43,13.30
2019,06,02,07,44,13.40
2019,06,02,07,45,13.40
2019,06,02,07,46,13.50
2019,06,02,07,47,13.50
2019,06,02,07,48,13.60
2019,06,02,07,49,13.70
2019,06,02,07,50,13.70
2019,06,02,07,51,13.70
2019,06,02,07,52,13.80
2019,06,02,07,53,13.90
2019,06,02,07,54,13.90
2019,06,02,07,55,13.90
2019,06,02,07,56,13.90
2019,06,02,07,57,13.90
2019,06,02,07,58,14.00
2019,06,02,07,59,14.00
2019,06,02,08,00,14.00
2019,06,02,08,01,14.10
2019,06,02,08,02,14.10
2019,06,02,08,03,14.20
2019,06,02,08,04,14.20
2019,06,02,08,05,14.20
2019,06,02,08,06,14.30
2019,06,02,08,07,14.40
2019,06,02,08,08,14.40
2019,06,02,08,09,14.50
2019,06,02,08,10,14.50
2019,06,02,08,11,14.50
2019,06,02,08,12,14.50
2019,06,02,08,13,14.50
2019,06,02,08,14,14.60
2019,06,02,08,15,14.60
2019,06,02,08,16,14.60
2019,06,02,08,17,14.60
2019,06,02,08,18,14.70
2019,06,02,08,19,14.70
2019,06,02,08,20,14.80
2019,06,02,08,21,14.80
2019,06,02,08,22,14.90
2019,06,02,08,23,15.00
2019,06,02,08,24,15.00
2019,06,02,08,25,15.10
2019,06,02,08,26,15.20
2019,06,02,08,27,15.20
2019,06,02,08,28,15.30
2019,06,02,08,29,15.40
2019,06,02,08,30,15.40
2019,06,02,08,31,15.40
2019,06,02,08,32,15.50
2019,06,02,08,33,15.50
2019,06,02,08,34,15.60
2019,06,02,08,35,15.70
2019,06,02,08,36,15.80
2019,06,02,08,37,15.80
2019,06,02,08,38,15.90
2019,06,02,08,39,15.90
2019,06,02,08,40,15.90
2019,06,02,08,41,15.90
2019,06,02,08,42,16.00
2019,06,02,08,43,16.10
2019,06,02,08,44,16.10
2019,06,02,08,45,16.10
2019,06,02,08,46,16.10
2019,06,02,08,47,16.10
2019,06,02,08,48,16.20
2019,06,02,08,49,16.20
2019,06,02,08,50,16.30
2019,06,02,08,51,16.30
2019,06,02,08,52,16.40
2019,06,02,08,53,16.40
2019,06,02,08,54,16.40
2019,06,02,08,55,16.50
2019,06,02,08,56,16.60
2019,06,02,08,57,16.70
2019,06,02,08,58,16.70
2019,06,02,08,59,16.70
2019,06,02,09,00,16.70
2019,06,02,09,01,16.70
2019,06,02,09,02,16.70
2019,06,02,09,03,16.70
2019,06,02,09,04,16.80
2019,06,02,09,05,16.90
2019,06,02,09,06,16.90
2019,06,02,09,07,16.90
2019,06,02,09,08,17.00
2019,06,02,09,09,17.00
2019,06,02,09,10,17.00
2019,06,02,09,11,17.00
2019,06,02,09,12,17.10
2019,06,02,09,13,17.20
2019,06,02,09,14,17.30
2019,06,02,09,15,17.30
2019,06,02,09,16,17.40
2019,06,02,09,17,17.40
2019,06,02,09,18,17.50
2019,06,02,09,19,17.50
2019,06,02,09,20,17.60
2019,06,02,09,21,17.70
2019,06,02,09,22,17.70
2019,06,02,09,23,17.70
2019,06,02,09,24,17.70
2019,06,02,09,25,17.80
2019,06,02,09,26,17.80
2019,06,02,09,27,17.90
2019,06,02,09,28,17.90
2019,06,02,09,29,17.90
2019,06,02,09,30,17.90
2019,06,02,09,31,17.90
2019,06,02,09,32,17.90
2019,06,02,09,33,17.90
2019,06,02,09,34,18.00
2019,06,02,09,35,18.10
2019,06,02,09,36,18.10
2019,06,02,09,37,18.20
2019,06,02,09,38,18.20
2019,06,02,09,39,18.20
2019,06,02,09,40,18.20
2019,06,02,09,41,18.20
2019,06,02,09,42,18.20
2019,06,02,09,43,18.20
2019,06,02,09,44,18.20
2019,06,02,09,45,18.30
2019,06,02,09,46,18.40
2019,06,02,09,47,18.50
2019,06,02,09,48,18.50
2019,06,02,09,49,18.60
2019,06,02,09,50,18.70
2019,06,02,09,51,18.70
2019,06,02,09,52,18.80
2019,06,02,09,53,18.80
2019,06,02,09,54,18.80
2019,06,02,09,55,18.80
2019,06,02,09,56,18.80
2019,06,02,09,57,18.90
2019,06,02,09,58,18.90
2019,06,02,09,59,18.90
2019,06,02,10,00,18.90
2019,06,02,10,01,18.80
2019,06,02,10,02,18.80
2019,06,02,10,03,18.80
2019,06,02,10,04,18.80
2019,06,02,10,05,18.80
2019,06,02,10,06,18.80
2019,06,02,10,07,18.80
2019,06,02,10,08,18.80
2019,06,02,10,09,18.80
2019,06,02,10,10,18.80
2019,06,02,10,11,18.80
2019,06,02,10,12,18.80
2019,06,02,10,13,18.90
2019,06,02,10,14,18.90
2019,06,02,10,15,19.00
2019,06,02,10,16,19.10
2019,06,02,10,17,19.10
2019,06,02,10,18,19.10
2019,06,02,10,19,19.10
2019,06,02,10,20,19.20
2019,06,02,10,21,19.30
2019,06,02,10,22,19.40
2019,06,02,10,23,19.50
2019,06,02,10,24,19.50
2019,06,02,10,25,19.40
2019,06,02,10,26,19.40
2019,06,02,10,27,19.40
2019,06,02,10,28,19.40
2019,06,02,10,29,19.40
2019,06,02,10,30,19.40
2019,06,02,10,31,19.40
2019,06,02,10,32,19.40
2019,06,02,10,33,19.30
2019,06,02,10,34,19.30
2019,06,02,10,35,19.40
2019,06,02,10,36,19.30
2019,06,02,10,37,19.30
2019,06,02,10,38,19.20
2019,06,02,10,39,19.20
2019,06,02,10,40,19.10
2019,06,02,10,41,19.10
2019,06,02,10,42,19.10
2019,06,02,10,43,19.20
2019,06,02,10,44,19.20
2019,06,02,10,45,19.30
2019,06,02,10,46,19.40
2019,06,02,10,47,19.40
2019,06,02,10,48,19.50
2019,06,02,10,49,19.50
2019,06,02,10,50,19.60
2019,06,02,10,51,19.70
2019,06,02,10,52,19.80
2019,06,02,10,53,19.80
2019,06,02,10,54,19.80
2019,06,02,10,55,19.90
2019,06,02,10,56,19.90
2019,06,02,10,57,20.00
2019,06,02,10,58,20.10
2019,06,02,10,59,20.20
2019,06,02,11,00,20.20
2019,06,02,11,01,20.30
2019,06,02,11,02,20.30
2019,06,02,11,03,20.40
2019,06,02,11,04,20.40
2019,06,02,11,05,20.50
2019,06,02,11,06,20.50
2019,06,02,11,07,20.50
2019,06,02,11,08,20.50
2019,06,02,11,09,20.50
2019,06,02,11,10,20.40
2019,06,02,11,11,20.40
2019,06,02,11,12,20.40
2019,06,02,11,13,20.40
2019,06,02,11,14,20.50
2019,06,02,11,15,20.50
2019,06,02,11,16,20.50
2019,06,02,11,17,20.60
2019,06,02,11,18,20.50
2019,06,02,11,19,20.40
2019,06,02,11,20,20.30
2019,06,02,11,21,20.30
2019,06,02,11,22,20.30
2019,06,02,11,23,20.30
2019,06,02,11,24,20.30
2019,06,02,11,25,20.40
2019,06,02,11,26,20.40
2019,06,02,11,27,20.50
2019,06,02,11,28,20.50
2019,06,02,11,29,20.50
2019,06,02,11,30,20.60
2019,06,02,11,31,20.70
2019,06,02,11,32,20.70
2019,06,02,11,33,20.80
2019,06,02,11,34,20.80
2019,06,02,11,35,20.80
2019,06,02,11,36,20.90
2019,06,02,11,37,20.90
2019,06,02,11,38,20.90
2019,06,02,11,39,20.90
2019,06,02,11,40,20.80
2019,06,02,11,41,20.80
2019,06,02,11,42,20.80
2019,06,02,11,43,20.80
2019,06,02,11,44,20.80
2019,06,02,11,45,20.80
2019,06,02,11,46,20.80
2019,06,02,11,47,20.60
2019,06,02,11,48,20.60
2019,06,02,11,49,20.60
2019,06,02,11,50,20.70
2019,06,02,11,51,20.70
2019,06,02,11,52,20.80
2019,06,02,11,53,20.80
2019,06,02,11,54,20.80
2019,06,02,11,55,20.80
2019,06,02,11,56,20.90
2019,06,02,11,57,20.80
2019,06,02,11,58,20.80
2019,06,02,11,59,20.60
2019,06,02,12,00,20.60
2019,06,02,12,01,20.50
2019,06,02,12,02,20.40
2019,06,02,12,03,20.40
2019,06,02,12,04,20.50
2019,06,02,12,05,20.60
2019,06,02,12,06,20.60
2019,06,02,12,07,20.70
2019,06,02,12,08,20.80
2019,06,02,12,09,20.80
2019,06,02,12,10,21.00
2019,06,02,12,11,21.10
2019,06,02,12,12,21.20
2019,06,02,12,13,21.30
2019,06,02,12,14,21.30
2019,06,02,12,15,21.30
2019,06,02,12,16,21.30
2019,06,02,12,17,21.30
2019,06,02,12,18,21.40
2019,06,02,12,19,21.50
2019,06,02,12,20,21.50
2019,06,02,12,21,21.40
2019,06,02,12,22,21.50
2019,06,02,12,23,21.60
2019,06,02,12,24,21.60
2019,06,02,12,25,21.60
2019,06,02,12,26,21.60
2019,06,02,12,27,21.60
2019,06,02,12,28,21.60
2019,06,02,12,29,21.60
2019,06,02,12,30,21.50
2019,06,02,12,31,21.40
2019,06,02,12,32,21.30
2019,06,02,12,33,21.30
2019,06,02,12,34,21.30
2019,06,02,12,35,21.30
2019,06,02,12,36,21.30
2019,06,02,12,37,21.30
2019,06,02,12,38,21.30
2019,06,02,12,39,21.30
2019,06,02,12,40,21.30
2019,06,02,12,41,21.10
2019,06,02,12,42,21.00
2019,06,02,12,43,21.00
2019,06,02,12,44,21.00
2019,06,02,12,45,21.00
2019,06,02,12,46,21.00
2019,06,02,12,47,21.00
2019,06,02,12,48,21.00
2019,06,02,12,49,21.00
2019,06,02,12,50,21.00
2019,06,02,12,51,21.10
2019,06,02,12,52,21.10
2019,06,02,12,53,21.20
2019,06,02,12,54,21.20
2019,06,02,12,55,21.30
2019,06,02,12,56,21.30
2019,06,02,12,57,21.30
2019,06,02,12,58,21.40
2019,06,02,12,59,21.50
2019,06,02,13,00,21.60
2019,06,02,13,01,21.60
2019,06,02,13,02,21.70
2019,06,02,13,03,21.70
2019,06,02,13,04,21.70
2019,06,02,13,05,21.70
2019,06,02,13,06,21.80
2019,06,02,13,07,21.80
2019,06,02,13,08,21.90
2019,06,02,13,09,22.00
2019,06,02,13,10,22.00
2019,06,02,13,11,22.10
2019,06,02,13,12,22.00
2019,06,02,13,13,22.00
2019,06,02,13,14,22.00
2019,06,02,13,15,22.10
2019,06,02,13,16,22.10
2019,06,02,13,17,22.10
2019,06,02,13,18,22.10
2019,06,02,13,19,22.10
2019,06,02,13,20,22.10
2019,06,02,13,21,22.10
2019,06,02,13,22,22.20
2019,06,02,13,23,22.30
2019,06,02,13,24,22.40
2019,06,02,13,25,22.50
2019,06,02,13,26,22.50
2019,06,02,13,27,22.60
2019,06,02,13,28,22.70
2019,06,02,13,29,22.80
2019,06,02,13,30,22.90
2019,06,02,13,31,22.90
2019,06,02,13,32,22.90
2019,06,02,13,33,22.90
2019,06,02,13,34,23.10
2019,06,02,13,35,23.20
2019,06,02,13,36,23.30
2019,06,02,13,37,23.50
2019,06,02,13,38,23.60
2019,06,02,13,39,23.70
2019,06,02,13,40,23.90
2019,06,02,13,41,24.00
2019,06,02,13,42,24.10
2019,06,02,13,43,24.10
2019,06,02,13,44,24.10
2019,06,02,13,45,24.10
2019,06,02,13,46,24.00
2019,06,02,13,47,23.90
2019,06,02,13,48,23.80
2019,06,02,13,49,23.80
2019,06,02,13,50,23.70
2019,06,02,13,51,23.70
2019,06,02,13,52,23.70
2019,06,02,13,53,23.70
2019,06,02,13,54,23.60
2019,06,02,13,55,23.60
2019,06,02,13,56,23.40
2019,06,02,13,57,23.40
2019,06,02,13,58,23.40
2019,06,02,13,59,23.40
2019,06,02,14,00,23.40
2019,06,02,14,01,23.40
2019,06,02,14,02,23.40
2019,06,02,14,03,23.40
2019,06,02,14,04,23.60
2019,06,02,14,05,23.60
2019,06,02,14,06,23.60
2019,06,02,14,07,23.60
2019,06,02,14,08,23.60
2019,06,02,14,09,23.70
2019,06,02,14,10,23.70
2019,06,02,14,11,23.70
2019,06,02,14,12,23.50
2019,06,02,14,13,23.40
2019,06,02,14,14,23.30
2019,06,02,14,15,23.30
2019,06,02,14,16,23.30
2019,06,02,14,17,23.30
2019,06,02,14,18,23.20
2019,06,02,14,19,23.20
2019,06,02,14,20,23.20
2019,06,02,14,21,23.20
2019,06,02,14,22,23.30
2019,06,02,14,23,23.20
2019,06,02,14,24,23.20
2019,06,02,14,25,23.30
2019,06,02,14,26,23.30
2019,06,02,14,27,23.40
2019,06,02,14,28,23.50
2019,06,02,14,29,23.60
2019,06,02,14,30,23.70
2019,06,02,14,31,23.70
2019,06,02,14,32,23.70
2019,06,02,14,33,23.60
2019,06,02,14,34,23.60
2019,06,02,14,35,23.50
2019,06,02,14,36,23.40
2019,06,02,14,37,23.30
2019,06,02,14,38,23.30
2019,06,02,14,39,23.30
2019,06,02,14,40,23.30
2019,06,02,14,41,23.30
2019,06,02,14,42,23.30
2019,06,02,14,43,23.30
2019,06,02,14,44,23.40
2019,06,02,14,45,23.50
2019,06,02,14,46,23.60
2019,06,02,14,47,23.60
2019,06,02,14,48,23.70
2019,06,02,14,49,23.70
2019,06,02,14,50,23.70
2019,06,02,14,51,23.70
2019,06,02,14,52,23.80
2019,06,02,14,53,23.80
2019,06,02,14,54,23.80
2019,06,02,14,55,23.80
2019,06,02,14,56,23.80
2019,06,02,14,57,23.80
2019,06,02,14,58,23.80
2019,06,02,14,59,23.80
2019,06,02,15,00,23.80
2019,06,02,15,01,23.80
2019,06,02,15,02,23.70
2019,06,02,15,03,23.70
2019,06,02,15,04,23.60
2019,06,02,15,05,23.50
2019,06,02,15,06,23.30
2019,06,02,15,07,23.20
2019,06,02,15,08,23.20
2019,06,02,15,09,23.10
2019,06,02,15,10,23.00
2019,06,02,15,11,22.90
2019,06,02,15,12,22.90
2019,06,02,15,13,22.90
2019,06,02,15,14,22.90
2019,06,02,15,15,22.90
2019,06,02,15,16,22.90
2019,06,02,15,17,22.90
2019,06,02,15,18,22.90
2019,06,02,15,19,22.90
2019,06,02,15,20,22.90
2019,06,02,15,21,22.90
2019,06,02,15,22,22.90
2019,06,02,15,23,22.90
2019,06,02,15,24,23.10
2019,06,02,15,25,23.00
2019,06,02,15,26,22.90
2019,06,02,15,27,22.90
2019,06,02,15,28,22.90
2019,06,02,15,29,22.90
2019,06,02,15,30,22.90
2019,06,02,15,31,22.80
2019,06,02,15,32,22.70
2019,06,02,15,33,22.60
2019,06,02,15,34,22.60
2019,06,02,15,35,22.70
2019,06,02,15,36,22.70
2019,06,02,15,37,22.60
2019,06,02,15,38,22.60
2019,06,02,15,39,22.60
2019,06,02,15,40,22.70
2019,06,02,15,41,22.70
2019,06,02,15,42,22.70
2019,06,02,15,43,22.70
2019,06,02,15,44,22.70
2019,06,02,15,45,22.70
2019,06,02,15,46,22.70
2019,06,02,15,47,22.80
2019,06,02,15,48,22.80
2019,06,02,15,49,22.90
2019,06,02,15,50,22.90
2019,06,02,15,51,22.90
2019,06,02,15,52,22.90
2019,06,02,15,53,22.90
2019,06,02,15,54,22.90
2019,06,02,15,55,22.90
2019,06,02,15,56,22.80
2019,06,02,15,57,22.80
2019,06,02,15,58,22.70
2019,06,02,15,59,22.60
2019,06,02,16,00,22.60
2019,06,02,16,01,22.50
2019,06,02,16,02,22.50
2019,06,02,16,03,22.50
2019,06,02,16,04,22.50
2019,06,02,16,05,22.50
2019,06,02,16,06,22.60
2019,06,02,16,07,22.60
2019,06,02,16,08,22.60
2019,06,02,16,09,22.50
2019,06,02,16,10,22.50
2019,06,02,16,11,22.60
2019,06,02,16,12,22.60
2019,06,02,16,13,22.50
2019,06,02,16,14,22.60
2019,06,02,16,15,22.50
2019,06,02,16,16,22.50
2019,06,02,16,17,22.40
2019,06,02,16,18,22.40
2019,06,02,16,19,22.40
2019,06,02,16,20,22.50
2019,06,02,16,21,22.50
2019,06,02,16,22,22.60
2019,06,02,16,23,22.60
2019,06,02,16,24,22.70
2019,06,02,16,25,22.70
2019,06,02,16,26,22.70
2019,06,02,16,27,22.80
2019,06,02,16,28,22.80
2019,06,02,16,29,22.70
2019,06,02,16,30,22.60
2019,06,02,16,31,22.60
2019,06,02,16,32,22.50
2019,06,02,16,33,22.50
2019,06,02,16,34,22.40
2019,06,02,16,35,22.30
2019,06,02,16,36,22.30
2019,06,02,16,37,22.30
2019,06,02,16,38,22.20
2019,06,02,16,39,22.20
2019,06,02,16,40,22.10
2019,06,02,16,41,22.10
2019,06,02,16,42,22.10
2019,06,02,16,43,22.10
2019,06,02,16,44,22.10
2019,06,02,16,45,22.10
2019,06,02,16,46,22.10
2019,06,02,16,47,22.10
2019,06,02,16,48,22.20
2019,06,02,16,49,22.20
2019,06,02,16,50,22.20
2019,06,02,16,51,22.20
2019,06,02,16,52,22.20
2019,06,02,16,53,22.20
2019,06,02,16,54,22.10
2019,06,02,16,55,22.10
2019,06,02,16,56,22.10
2019,06,02,16,57,22.10
2019,06,02,16,58,22.00
2019,06,02,16,59,22.00
2019,06,02,17,00,21.90
2019,06,02,17,01,21.80
2019,06,02,17,02,21.70
2019,06,02,17,03,21.60
2019,06,02,17,04,21.60
2019,06,02,17,05,21.50
2019,06,02,17,06,21.40
2019,06,02,17,07,21.30
2019,06,02,17,08,21.30
2019,06,02,17,09,21.30
2019,06,02,17,10,21.30
2019,06,02,17,11,21.20
2019,06,02,17,12,21.10
2019,06,02,17,13,21.10
2019,06,02,17,14,21.10
2019,06,02,17,15,21.00
2019,06,02,17,16,21.00
2019,06,02,17,17,20.90
2019,06,02,17,18,20.80
2019,06,02,17,19,20.80